DW9313 Weather Reports


time (UTC)temp
C
wind
direction
speed
KPH
gust
KPH
rain 1hr
cm
rain 24hr
cm
rain mn
cm
humidity
%
barometer
mb
20260508142840 13 142 3.2 4.8 0.00 0.05 0.00 80 1015.9
20260508142340 13 148 3.2 4.8 0.00 0.05 0.00 80 1015.8
20260508141842 13 122 3.2 8.0 0.00 0.05 0.00 80 1015.8
20260508141340 13 129 4.8 9.7 0.00 0.05 0.00 80 1015.8
20260508140340 13 120 4.8 9.7 0.00 0.05 0.00 80 1015.8
20260508135840 13 137 8.0 11.3 0.00 0.05 0.00 79 1015.8
20260508135340 13 118 8.0 12.9 0.00 0.05 0.00 78 1015.7
20260508134841 13 121 6.4 9.7 0.00 0.05 0.00 78 1015.6
20260508134340 13 111 8.0 11.3 0.00 0.05 0.00 78 1015.6
20260508133840 13 105 1.6 8.0 0.00 0.05 0.00 76 1015.6
20260508133340 13 99 4.8 9.7 0.00 0.05 0.00 75 1015.6
20260508132841 13 124 1.6 9.7 0.00 0.05 0.00 76 1015.6
20260508131841 13 99 1.6 9.7 0.00 0.05 0.00 76 1015.6
20260508131340 13 107 1.6 9.7 0.00 0.05 0.00 77 1015.5
20260508130841 13 102 1.6 11.3 0.00 0.05 0.00 78 1015.5
20260508125340 14 92 4.8 11.3 0.00 0.05 0.00 77 1015.3
20260508124842 14 97 3.2 9.7 0.00 0.05 0.00 75 1015.4
20260508124341 14 111 6.4 16.1 0.00 0.05 0.00 73 1015.3
20260508123842 15 107 3.2 9.7 0.00 0.13 0.00 73 1015.3
20260508123341 15 108 1.6 9.7 0.00 0.13 0.00 74 1015.2
20260508122842 14 72 1.6 11.3 0.00 0.13 0.00 74 1015.3
20260508122342 14 106 1.6 9.7 0.00 0.15 0.00 74 1015.3
20260508121841 14 125 3.2 9.7 0.00 0.15 0.00 73 1015.2
20260508121341 14 99 3.2 11.3 0.00 0.15 0.00 74 1015.3
20260508120842 14 109 1.6 9.7 0.00 0.15 0.00 74 1015.3
20260508120341 14 107 1.6 9.7 0.00 0.15 0.00 74 1015.2
20260508115842 14 103 11.3 16.1 0.00 0.15 0.00 72 1015.2
20260508115342 15 114 3.2 14.5 0.00 0.15 0.00 72 1015.2
20260508114841 15 98 8.0 11.3 0.00 0.15 0.00 71 1015.2
20260508114342 15 120 0.0 9.7 0.00 0.15 0.00 71 1015.2
20260508113842 14 100 6.4 11.3 0.00 0.15 0.00 72 1015.1
20260508113343 14 105 4.8 11.3 0.00 0.15 0.00 71 1015.1
20260508112842 14 121 8.0 12.9 0.00 0.15 0.00 70 1015.0
20260508112341 14 110 3.2 11.3 0.00 0.15 0.00 72 1015.0
20260508111842 15 99 6.4 16.1 0.00 0.15 0.00 70 1015.0
20260508111342 15 113 0.0 3.2 0.00 0.15 0.00 70 1015.0
20260508110841 15 114 1.6 8.0 0.00 0.15 0.00 70 1015.0
20260508110342 15 120 1.6 11.3 0.00 0.15 0.00 69 1015.0
20260508105841 15 123 1.6 11.3 0.00 0.15 0.00 72 1015.0
20260508105343 15 96 0.0 4.8 0.00 0.15 0.00 72 1015.0
20260508104343 14 101 4.8 12.9 0.00 0.15 0.00 74 1015.0
20260508103841 14 111 9.7 12.9 0.00 0.20 0.00 73 1015.0
20260508103343 14 95 4.8 12.9 0.00 0.20 0.00 73 1015.0
20260508102343 15 102 1.6 8.0 0.00 0.20 0.00 70 1014.9
20260508101842 15 112 3.2 9.7 0.00 0.20 0.00 71 1015.0
20260508101342 14 126 1.6 11.3 0.00 0.20 0.00 73 1014.9
20260508100842 14 104 1.6 9.7 0.00 0.20 0.00 74 1014.9
20260508100343 14 105 3.2 9.7 0.00 0.43 0.00 74 1014.8
20260508095843 14 104 0.0 3.2 0.00 0.46 0.00 74 1014.8
20260508095343 13 132 1.6 9.7 0.00 0.46 0.00 74 1014.8
20260508094343 13 130 3.2 9.7 0.00 0.46 0.00 71 1014.8
20260508093842 13 107 1.6 8.0 0.00 0.46 0.00 72 1014.8
20260508093343 13 101 3.2 4.8 0.00 0.46 0.00 71 1014.8
20260508092844 13 104 1.6 8.0 0.00 0.46 0.00 72 1014.7
20260508092343 13 118 0.0 3.2 0.00 0.46 0.00 73 1014.7
20260508091842 13 127 1.6 9.7 0.00 0.48 0.00 70 1014.6
20260508091342 14 100 1.6 9.7 0.00 0.48 0.00 69 1014.7
20260508090345 14 114 0.0 1.6 0.00 0.48 0.00 71 1014.7
20260508085844 13 114 0.0 3.2 0.00 0.48 0.00 71 1014.6
20260508084844 13 132 0.0 1.6 0.00 0.48 0.00 75 1014.6
20260508084345 13 109 0.0 1.6 0.00 0.48 0.00 77 1014.6
20260508083843 12 116 0.0 1.6 0.00 0.48 0.00 80 1014.5
20260508083343 12 106 3.2 8.0 0.00 0.48 0.00 79 1014.6
20260508082843 12 107 3.2 9.7 0.00 0.48 0.00 79 1014.6
20260508082344 12 109 3.2 8.0 0.00 0.51 0.00 80 1014.5
20260508081842 12 118 1.6 8.0 0.00 0.51 0.00 81 1014.5
20260508080845 12 108 0.0 4.8 0.00 0.51 0.00 80 1014.5
20260508080344 12 111 0.0 1.6 0.00 0.51 0.00 81 1014.4
20260508075843 12 101 1.6 3.2 0.00 0.51 0.00 80 1014.4
20260508074845 11 115 0.0 1.6 0.00 0.51 0.00 83 1014.4
20260508074343 11 125 0.0 8.0 0.00 0.51 0.00 83 1014.3
20260508073845 11 102 0.0 3.2 0.00 0.51 0.00 83 1014.3
20260508073343 11 105 1.6 3.2 0.00 0.51 0.00 83 1014.2
20260508072845 11 109 0.0 1.6 0.00 0.51 0.00 84 1014.2
20260508072344 11 122 0.0 1.6 0.00 0.51 0.00 86 1014.2
20260508071345 10 103 0.0 1.6 0.00 0.51 0.00 87 1014.2
20260508070844 10 117 0.0 0.0 0.00 0.51 0.00 86 1014.2
20260508070344 10 117 0.0 1.6 0.00 0.51 0.00 87 1014.2
20260508065845 10 100 0.0 1.6 0.00 0.51 0.00 87 1014.2
20260508065344 10 108 0.0 0.0 0.00 0.51 0.00 89 1014.2
20260508064345 8 102 0.0 1.6 0.00 0.51 0.00 92 1014.2
20260508063344 7 143 0.0 0.0 0.00 0.51 0.00 93 1014.2
20260508061844 6 338 0.0 0.0 0.00 0.51 0.00 93 1014.0
20260508060845 5 338 0.0 0.0 0.00 0.51 0.00 94 1013.9
20260508060344 5 338 0.0 0.0 0.00 0.51 0.00 93 1013.9
20260508055844 5 338 0.0 1.6 0.00 0.51 0.00 93 1013.8
20260508055344 5 338 0.0 1.6 0.00 0.51 0.00 93 1013.8
20260508054845 5 107 0.0 1.6 0.00 0.51 0.00 94 1013.8
20260508053844 4 107 0.0 1.6 0.00 0.51 0.00 94 1013.8
20260508053344 4 142 0.0 1.6 0.00 0.51 0.00 93 1013.8
20260508052844 4 284 0.0 1.6 0.00 0.51 0.00 93 1013.6
20260508052345 4 285 0.0 1.6 0.00 0.51 0.00 93 1013.6
20260508051344 4 280 0.0 1.6 0.00 0.51 0.00 93 1013.5
20260508050844 5 269 0.0 1.6 0.00 0.51 0.00 93 1013.5
20260508050345 5 269 0.0 1.6 0.00 0.51 0.00 93 1013.4
20260508045846 5 269 0.0 0.0 0.00 0.51 0.00 93 1013.4
20260508045345 5 269 0.0 1.6 0.00 0.51 0.00 93 1013.4
20260508044344 5 259 0.0 1.6 0.00 0.51 0.00 93 1013.5
20260508043845 4 259 0.0 0.0 0.00 0.51 0.00 93 1013.6
20260508043347 4 259 0.0 0.0 0.00 0.51 0.00 92 1013.6
20260508042845 4 259 0.0 0.0 0.00 0.51 0.00 92 1013.6
20260508042346 5 259 0.0 0.0 0.00 0.51 0.00 93 1013.6
20260508041846 5 259 0.0 0.0 0.00 0.51 0.00 93 1013.6
20260508040845 4 259 0.0 0.0 0.00 0.51 0.00 92 1013.6
20260508040345 5 259 0.0 0.0 0.00 0.51 0.00 92 1013.6
20260508035845 5 259 0.0 0.0 0.00 0.51 0.00 93 1013.6
20260508034846 5 259 0.0 0.0 0.00 0.51 0.00 93 1013.5
20260508033846 5 259 0.0 0.0 0.00 0.51 0.00 93 1013.4
20260508033345 4 259 0.0 0.0 0.00 0.51 0.00 93 1013.4
20260508032845 4 259 0.0 0.0 0.00 0.51 0.00 92 1013.4
20260508032345 4 259 0.0 0.0 0.00 0.51 0.00 92 1013.4
20260508031846 4 259 0.0 0.0 0.00 0.51 0.00 92 1013.4
20260508031345 5 259 0.0 0.0 0.00 0.51 0.00 92 1013.4
20260508030847 5 266 0.0 0.0 0.00 0.51 0.00 92 1013.4
20260508030345 5 266 0.0 0.0 0.00 0.51 0.00 92 1013.4
20260508025846 5 266 0.0 0.0 0.00 0.51 0.00 93 1013.4
20260508025347 5 266 0.0 1.6 0.00 0.51 0.00 93 1013.4
20260508024845 5 266 0.0 0.0 0.00 0.51 0.00 92 1013.4
20260508024346 5 266 0.0 0.0 0.00 0.51 0.00 92 1013.4
20260508023847 5 266 0.0 0.0 0.00 0.51 0.00 92 1013.4
20260508023346 5 266 0.0 0.0 0.00 0.51 0.00 93 1013.3
20260508022846 5 266 0.0 0.0 0.00 0.51 0.00 93 1013.3
20260508021846 5 266 0.0 0.0 0.00 0.51 0.00 92 1013.2
20260508021346 5 266 0.0 0.0 0.00 0.51 0.00 91 1013.2
20260508020847 5 266 0.0 0.0 0.00 0.51 0.00 92 1013.2
20260508020345 5 266 0.0 0.0 0.00 0.51 0.00 91 1013.3
20260508015846 5 266 0.0 0.0 0.00 0.51 0.00 92 1013.3
20260508015346 5 266 0.0 0.0 0.00 0.51 0.00 93 1013.2
20260508014846 5 266 0.0 0.0 0.00 0.51 0.00 92 1013.3
20260508014347 5 266 0.0 0.0 0.00 0.51 0.00 91 1013.2
20260508013846 5 266 0.0 0.0 0.00 0.51 0.00 91 1013.2
20260508013347 6 266 0.0 0.0 0.00 0.51 0.00 92 1013.1
20260508012847 6 266 0.0 0.0 0.00 0.51 0.00 92 1013.2
20260508012346 6 266 0.0 0.0 0.00 0.51 0.00 92 1013.2
20260508011848 6 266 0.0 0.0 0.00 0.51 0.00 92 1013.2
20260508011348 6 266 0.0 0.0 0.00 0.51 0.00 93 1013.2
20260508010847 6 266 0.0 0.0 0.00 0.51 0.00 93 1013.2
20260508010347 5 266 0.0 0.0 0.00 0.51 0.00 92 1013.3
20260508005848 5 266 0.0 0.0 0.00 0.51 0.00 92 1013.3
20260508005347 5 266 0.0 0.0 0.00 0.51 0.00 91 1013.3
20260508004848 5 266 0.0 0.0 0.00 0.51 0.00 91 1013.4
20260508003847 6 266 0.0 0.0 0.00 0.51 0.00 91 1013.4
20260508002849 6 266 0.0 0.0 0.00 0.51 0.00 91 1013.4
20260508002347 6 266 0.0 0.0 0.00 0.51 0.00 91 1013.5
20260508001847 6 266 0.0 0.0 0.00 0.51 0.00 91 1013.5
20260508001347 6 266 0.0 0.0 0.00 0.51 0.00 90 1013.6
20260508000847 6 266 0.0 0.0 0.00 0.51 0.00 90 1013.6
20260508000349 6 266 0.0 0.0 0.00 0.51 0.00 90 1013.5
20260507234349 6 266 0.0 1.6 0.00 0.51 0.00 90 1013.6
20260507233848 6 266 0.0 0.0 0.00 0.51 0.00 90 1013.5
20260507233348 6 266 0.0 0.0 0.00 0.51 0.00 90 1013.5
20260507232847 6 266 0.0 0.0 0.00 0.51 0.00 90 1013.5
20260507232348 7 266 0.0 0.0 0.00 0.51 0.00 90 1013.6
20260507231850 7 266 0.0 0.0 0.00 0.51 0.00 90 1013.6
20260507231347 7 266 0.0 0.0 0.00 0.51 0.00 90 1013.6
20260507230905 7 266 0.0 0.0 0.00 0.51 0.00 89 1013.6
20260507225847 7 266 0.0 0.0 0.00 0.51 0.05 89 1013.6
20260507224848 7 266 0.0 0.0 0.00 0.51 0.05 89 1013.5
20260507224349 7 266 0.0 0.0 0.00 0.51 0.05 89 1013.4
20260507223847 7 266 0.0 0.0 0.00 0.51 0.05 88 1013.4
20260507223347 7 266 0.0 0.0 0.00 0.51 0.05 88 1013.5
20260507222848 7 266 0.0 0.0 0.00 0.51 0.05 88 1013.5
20260507222348 7 266 0.0 0.0 0.00 0.51 0.05 88 1013.4
20260507221849 7 266 0.0 0.0 0.00 0.51 0.05 87 1013.4
20260507221350 7 266 0.0 0.0 0.00 0.51 0.05 86 1013.4
20260507220849 8 266 0.0 0.0 0.00 0.51 0.05 86 1013.4
20260507220348 8 266 0.0 0.0 0.00 0.51 0.05 87 1013.4
20260507215848 8 266 0.0 0.0 0.00 0.51 0.05 87 1013.3
20260507215348 8 267 0.0 1.6 0.00 0.51 0.05 87 1013.3
20260507214849 8 266 0.0 1.6 0.00 0.51 0.05 87 1013.3
20260507214248 8 201 0.0 0.0 0.00 0.51 0.05 87 1013.3
20260507213749 8 197 0.0 0.0 0.00 0.51 0.05 86 1013.3
20260507213248 8 197 0.0 0.0 0.00 0.51 0.05 86 1013.3
20260507211749 8 197 0.0 0.0 0.00 0.51 0.05 85 1013.3
20260507211248 8 197 0.0 0.0 0.00 0.51 0.05 84 1013.2
20260507210750 8 197 0.0 1.6 0.00 0.51 0.05 84 1013.2
20260507210248 8 235 0.0 0.0 0.00 0.51 0.05 84 1013.1
20260507205750 8 233 0.0 0.0 0.00 0.51 0.05 84 1013.0
20260507205248 9 234 0.0 0.0 0.00 0.51 0.05 84 1013.0
20260507204248 9 234 0.0 0.0 0.00 0.51 0.05 83 1012.9
20260507203748 10 234 0.0 1.6 0.00 0.51 0.05 82 1012.9
20260507203249 10 234 0.0 0.0 0.00 0.51 0.05 82 1012.9
20260507202249 10 229 0.0 1.6 0.00 0.51 0.05 82 1012.7
20260507201748 10 214 0.0 1.6 0.00 0.51 0.05 81 1012.6
20260507201248 10 201 0.0 1.6 0.00 0.51 0.05 81 1012.6
20260507200249 10 204 0.0 1.6 0.00 0.51 0.05 80 1012.6
20260507195748 11 230 0.0 1.6 0.00 0.51 0.05 79 1012.6
20260507195249 11 200 0.0 3.2 0.00 0.51 0.05 79 1012.5
20260507194248 11 77 0.0 1.6 0.00 0.51 0.05 78 1012.5
20260507193249 11 179 0.0 1.6 0.00 0.51 0.05 78 1012.5
20260507192750 11 102 0.0 3.2 0.00 0.51 0.05 78 1012.5
20260507192249 11 317 0.0 3.2 0.00 0.51 0.05 78 1012.5
20260507191251 11 297 1.6 8.0 0.00 0.51 0.05 78 1012.4
20260507190816 12 316 1.6 3.2 0.00 0.51 0.05 77 1012.3
20260507190252 12 307 1.6 8.0 0.00 0.51 0.05 77 1012.4
20260507185751 12 324 0.0 4.8 0.00 0.51 0.05 77 1012.3
20260507185249 12 329 1.6 9.7 0.00 0.51 0.05 76 1012.3
20260507184750 12 317 1.6 4.8 0.00 0.51 0.05 76 1012.3
20260507184249 12 319 1.6 8.0 0.00 0.51 0.05 76 1012.4
20260507183749 12 358 1.6 8.0 0.00 0.51 0.05 76 1012.4
20260507183250 12 298 0.0 3.2 0.00 0.51 0.05 76 1012.4
20260507182250 12 357 0.0 4.8 0.00 0.51 0.05 76 1012.3
20260507181750 12 302 1.6 8.0 0.00 0.51 0.05 76 1012.2
20260507181249 12 287 1.6 9.7 0.00 0.51 0.05 76 1012.2
20260507180751 12 153 1.6 9.7 0.00 0.51 0.05 75 1012.2
20260507180249 12 327 3.2 9.7 0.00 0.51 0.05 76 1012.2
20260507175249 12 321 4.8 12.9 0.00 0.51 0.05 76 1012.2
20260507174751 12 332 6.4 12.9 0.00 0.51 0.05 75 1012.2
20260507174250 12 323 6.4 11.3 0.00 0.51 0.05 75 1012.2
20260507173750 12 324 8.0 14.5 0.00 0.51 0.05 73 1012.2
20260507173250 13 311 4.8 14.5 0.00 0.51 0.05 75 1012.2
20260507172749 13 315 6.4 12.9 0.00 0.51 0.05 74 1012.2
20260507172250 13 312 4.8 14.5 0.00 0.51 0.05 73 1012.2
20260507171750 13 329 6.4 14.5 0.00 0.51 0.05 71 1012.1
20260507171251 13 293 4.8 11.3 0.00 0.51 0.05 71 1012.2
20260507170750 13 305 1.6 16.1 0.00 0.51 0.05 74 1012.3
20260507170252 13 312 8.0 14.5 0.00 0.51 0.05 72 1012.3
20260507165250 13 338 3.2 11.3 0.03 0.51 0.05 75 1012.3
20260507164751 13 317 3.2 12.9 0.03 0.51 0.05 73 1012.3
20260507164252 13 318 9.7 16.1 0.03 0.51 0.05 71 1012.3
20260507163751 14 297 4.8 12.9 0.00 0.51 0.08 72 1012.3
20260507162750 14 323 3.2 14.5 0.00 0.51 0.08 72 1012.4
20260507161750 15 322 4.8 16.1 0.00 0.48 0.05 69 1012.4
20260507161251 15 321 3.2 11.3 0.00 0.48 0.05 69 1012.4
20260507160751 15 2 3.2 12.9 0.00 0.48 0.05 68 1012.4
20260507160252 15 316 3.2 9.7 0.00 0.48 0.05 70 1012.4
20260507155250 14 288 8.0 14.5 0.03 0.48 0.08 69 1012.4
20260507154250 15 324 4.8 12.9 0.03 0.48 0.08 67 1012.3
20260507153752 15 319 3.2 12.9 0.03 0.48 0.08 70 1012.3
20260507153250 15 314 8.0 16.1 0.03 0.48 0.08 68 1012.2
20260507152752 15 290 3.2 19.3 0.03 0.48 0.08 70 1012.1
20260507152251 15 325 8.0 19.3 0.03 0.48 0.08 70 1012.1
20260507151751 15 321 3.2 16.1 0.00 0.46 0.05 71 1012.1
20260507151252 14 326 4.8 12.9 0.00 0.46 0.05 72 1012.2
20260507145751 14 315 4.8 11.3 0.00 0.46 0.05 72 1012.3
20260507145252 14 348 4.8 16.1 0.00 0.46 0.05 73 1012.3
20260507144751 15 311 9.7 20.9 0.00 0.46 0.05 71 1012.2
20260507144252 15 305 8.0 14.5 0.00 0.46 0.05 70 1012.3
20260507143751 15 320 3.2 11.3 0.00 0.46 0.05 70 1012.3